This is the latest recevied weather packets stored in our database for station/object W0AKO. If no packets are shown the sender has not sent any weather packets the latest 10 day(s).
| Time | Temp. | Humidity | Pressure | Rain* | Wind** | Luminosity | Snow |
|---|---|---|---|---|---|---|---|
| 1777784447 | 23.33° C | 10% | 1015.4 hPa | 0 mm | - | 0 W/m² | - |
| 1777784144 | 23.33° C | 10% | 1015.2 hPa | 0 mm | - | 0 W/m² | - |
| 1777783842 | 23.33° C | 10% | 1015 hPa | 0 mm | - | 0 W/m² | - |
| 1777783538 | 23.33° C | 10% | 1015.2 hPa | 0 mm | - | 0 W/m² | - |
| 1777783236 | 23.33° C | 10% | 1015.3 hPa | 0 mm | - | 0 W/m² | - |
| 1777782932 | 23.89° C | 10% | 1014.7 hPa | 0 mm | - | 0 W/m² | - |
| 1777782629 | 23.33° C | 10% | 1015 hPa | 0 mm | - | 0 W/m² | - |
| 1777782326 | 23.89° C | 10% | 1015.2 hPa | 0 mm | - | 0 W/m² | - |
| 1777782022 | 23.89° C | 10% | 1015 hPa | 0 mm | - | 0 W/m² | - |
| 1777781719 | 23.89° C | 10% | 1015.1 hPa | 0 mm | - | 0 W/m² | - |
| 1777781417 | 24.44° C | 10% | 1014.8 hPa | 0 mm | - | 0 W/m² | - |
| 1777781114 | 24.44° C | 10% | 1015 hPa | 0 mm | - | 0 W/m² | - |
| 1777780811 | 24.44° C | 10% | 1014.7 hPa | 0 mm | - | 0 W/m² | - |
| 1777780508 | 23.89° C | 10% | 1014.4 hPa | 0 mm | - | 0 W/m² | - |
| 1777780205 | 24.44° C | 10% | 1014.4 hPa | 0 mm | - | 0 W/m² | - |
| 1777779902 | 24.44° C | 10% | 1014.5 hPa | 0 mm | - | 0 W/m² | - |
| 1777779599 | 25° C | 10% | 1014.3 hPa | 0 mm | - | 0 W/m² | - |
| 1777779296 | 25° C | 10% | 1014.4 hPa | 0 mm | - | 0 W/m² | - |
| 1777778995 | 24.44° C | 10% | 1014.2 hPa | 0 mm | - | 0 W/m² | - |
| 1777778693 | 24.44° C | 10% | 1014.3 hPa | 0 mm | - | 0 W/m² | - |
| 1777778390 | 25° C | 10% | 1014.1 hPa | 0 mm | - | 0 W/m² | - |
| 1777778088 | 25° C | 10% | 1014.2 hPa | 0 mm | - | 0 W/m² | - |
| 1777777784 | 25.56° C | 10% | 1014.2 hPa | 0 mm | - | 0 W/m² | - |
| 1777777481 | 25.56° C | 10% | 1014.1 hPa | 0 mm | - | 0 W/m² | - |
| 1777777177 | 25.56° C | 10% | 1014 hPa | 0 mm | - | 0 W/m² | - |
* Rain latest hour (hover to see other rain measurements)
** Current wind speed in m/s (hover to see current wind gust speed)